Terug naar catalogus

COSMOS 2491 DEB

ActiefPO
NORAD 57560·DEBRIS·🇷🇺 Russia

Gelanceerd Dec 25, 2013 vanaf Plesetsk Cosmodrome

Loading…

Volgende Passages (komende 24 uur)

TLE

VerouderdSource: Space-Track

Epoch: Aug 29, 2026, 08:09 UTC

1 57560U 13076AX  26241.34019890  .00001646  00000-0  99425-2 0  9997
2 57560  82.4838 107.4382 0037273 348.0111  12.0085 12.55858679151372

Volg COSMOS 2491 DEB in realtime met AllMySat

Download on the App Store